Volver al catálogo

COSMOS 970 DEB

ActivoLEO
NORAD 64987·DEBRIS·🇷🇺 Russia

Lanzado Dec 21, 1977 desde Baikonur Cosmodrome

Loading…

Próximos Pases (próximas 24 horas)

TLE

EnvejeciendoSource: Space-Track

Época: Sep 9, 2026, 18:51 UTC

1 64987U 77121CY  26252.78599720 -.00000010  00000-0  85031-4 0  9999
2 64987  65.8472 347.1722 0122985 209.3743 235.0525 13.60877924635787

Sigue COSMOS 970 DEB en tiempo real con AllMySat

Download on the App Store